Location: Beaurevoir
(49.9971°N, 3.3085°E)
Time: 19:27:05
(UTC+00:00)

Cosmos 1980 Rocket - Pass Details

Date: 23 May 2024
Orbit: 827 x 851 km, 71.0° (Epoch: 14 June)

Event Time Altitude Azimuth Distance (km) Brightness Sun altitude
Rises 01:04:06 0° 325° (NW) 3,428 5.9 -17.1°
Reaches altitude 10° 01:06:45 10° 316° (NW) 2,488 5.0 -17.0°
Maximum altitude 01:11:48 34° 254° (WSW) 1,384 3.0 -16.7°
Enters shadow 01:13:53 26° 216° (SW) 1,620 3.1 -16.6°
